彩虹-1M 2星 (RADUGA-1M 2)

导读

RADUGA 1M-2(中文名虹1M-2),由独立国家联合体(CIS)发射于2010年1月28日,属于俄罗斯第三代“虹”系列地球同步轨道通信卫星,归俄罗斯航天部队运行管理。该卫星由列舍特涅夫信息卫星系统公司基于MSS-2500-GSO平台打造,发射质量约2300千克,设计寿命10年,搭载多频段通信载荷,主要承担军事通信任务,与其他卫星共同构成俄罗斯综合卫星通信系统,服务东半球除极区外通信需求。

基本信息
目录编号:
36358
目录名称:
RADUGA 1M-2
国际标识:
2010-002A
轨道中心:
EARTH
卫星名称:
彩虹-1M 2星
卫星全名:
彩虹-1M 2星 (RADUGA-1M 2)
卫星状态:
在轨 (已飞行5979 天)
发射日期:
2010-01-28 UTC
国别 :
俄罗斯(独联体) (CIS)
星等 :
--
轨道信息
数据来源 国际轨道数据 AOE轨道数据
星历时间 2026-06-12T14:13:19+0800
13小时前
查看轨道信息
2026-06-12T11:00:00+0800
17小时前
查看轨道信息
半长轴 42534.037km 42533.836km
偏心率 0.0005745 0.000574
轨道倾角 3.608° 3.609°
近地点辐角 265.303° 265.223°
升交点赤经 78.917° 78.931°
平近点角 341.604° 293.838°
近地点 36131.464km 36131.284km
远地点 36180.336km 36180.114km
周期 1455.005分钟 1454.995分钟
每日圈数 0.989687 0.989694
详细信息
平衡模式:
三轴稳定
覆盖范围:
全球
运营商:
俄罗斯国家航天集团
运营商所在国:
俄罗斯
制造商(研发单位):
列舍特涅夫卫星信息系统
制造商所在国:
俄罗斯
使用方式:
暂无
卫星简介
彩虹卫星(Raduga, Gran)是苏联用于军事和通信目的的一系列地球静止通信卫星。彩虹卫星旨在支持军事通信、Orbita地面电视网络,并在整个东半球(极地地区除外)提供电话和电报通信。该卫星仍在工作。
2D轨道图
3D轨道图
轨道高度分析图
轨道倾角分析图
轨道综合分析图
查看轨道综合分析图